| time (UTC) | temp C | wind direction | speed KPH | gust KPH | rain 1hr cm | rain 24hr cm | rain mn cm | humidity % | barometer mb |
| 20260503232020 | 15 | 269 | 6.4 | 9.7 | 0.00 | 0.43 | 0.43 | 43 | 1016.5 |
| 20260503231024 | 15 | 272 | 8.0 | 14.5 | 0.00 | 0.43 | 0.43 | 43 | 1016.4 |
| 20260503230029 | 16 | 270 | 9.7 | 19.3 | 0.00 | 0.43 | 0.43 | 42 | 1016.4 |
| 20260503225016 | 16 | 305 | 9.7 | 16.1 | 0.00 | 0.43 | 0.43 | 43 | 1016.4 |
| 20260503224102 | 15 | 243 | 8.0 | 11.3 | 0.00 | 0.43 | 0.43 | 43 | 1016.4 |
| 20260503223026 | 15 | 274 | 8.0 | 12.9 | 0.00 | 0.43 | 0.43 | 43 | 1016.4 |
| 20260503222030 | 16 | 287 | 9.7 | 14.5 | 0.00 | 0.43 | 0.43 | 43 | 1016.4 |
| 20260503221017 | 16 | 254 | 8.0 | 14.5 | 0.00 | 0.43 | 0.43 | 42 | 1016.4 |
| 20260503220021 | 16 | 301 | 6.4 | 12.9 | 0.00 | 0.43 | 0.43 | 42 | 1016.4 |
| 20260503215026 | 16 | 286 | 6.4 | 12.9 | 0.00 | 0.43 | 0.43 | 42 | 1016.4 |
| 20260503214031 | 17 | 273 | 9.7 | 14.5 | 0.00 | 0.43 | 0.43 | 40 | 1016.4 |
| 20260503213019 | 17 | 266 | 8.0 | 12.9 | 0.00 | 0.43 | 0.43 | 41 | 1016.5 |
| 20260503212043 | 17 | 275 | 11.3 | 24.1 | 0.00 | 0.43 | 0.43 | 41 | 1016.3 |
| 20260503211028 | 16 | 309 | 8.0 | 16.1 | 0.00 | 0.43 | 0.43 | 43 | 1016.4 |
| 20260503210032 | 17 | 279 | 8.0 | 14.5 | 0.00 | 0.43 | 0.43 | 42 | 1016.5 |
| 20260503205059 | 16 | 284 | 8.0 | 14.5 | 0.00 | 0.43 | 0.43 | 43 | 1016.5 |
| 20260503204024 | 17 | 252 | 11.3 | 20.9 | 0.00 | 0.43 | 0.43 | 43 | 1016.5 |
| 20260503203028 | 17 | 327 | 9.7 | 12.9 | 0.00 | 0.43 | 0.43 | 43 | 1016.5 |
| 20260503202032 | 17 | 288 | 12.9 | 20.9 | 0.00 | 0.43 | 0.43 | 41 | 1016.7 |
| 20260503201019 | 16 | 282 | 12.9 | 17.7 | 0.00 | 0.43 | 0.43 | 42 | 1016.8 |
| 20260503200025 | 16 | 261 | 11.3 | 17.7 | 0.00 | 0.43 | 0.43 | 42 | 1017.0 |
| 20260503195029 | 16 | 288 | 14.5 | 25.7 | 0.00 | 0.43 | 0.43 | 42 | 1017.2 |
| 20260503194036 | 17 | 249 | 14.5 | 17.7 | 0.00 | 0.43 | 0.43 | 42 | 1017.3 |
| 20260503193020 | 16 | 283 | 11.3 | 17.7 | 0.00 | 0.43 | 0.43 | 42 | 1017.4 |
| 20260503192025 | 16 | 308 | 11.3 | 17.7 | 0.00 | 0.43 | 0.43 | 44 | 1017.6 |
| 20260503191030 | 16 | 334 | 9.7 | 19.3 | 0.00 | 0.43 | 0.43 | 42 | 1017.6 |
| 20260503190016 | 16 | 275 | 16.1 | 29.0 | 0.00 | 0.43 | 0.43 | 43 | 1017.6 |
| 20260503185021 | 17 | 277 | 12.9 | 16.1 | 0.00 | 0.43 | 0.43 | 42 | 1017.7 |
| 20260503184025 | 16 | 268 | 14.5 | 22.5 | 0.00 | 0.43 | 0.43 | 43 | 1017.8 |
| 20260503183052 | 16 | 331 | 14.5 | 25.7 | 0.00 | 0.43 | 0.43 | 43 | 1017.9 |
| 20260503182038 | 16 | 275 | 11.3 | 20.9 | 0.00 | 0.43 | 0.43 | 43 | 1017.9 |
| 20260503181022 | 15 | 293 | 11.3 | 19.3 | 0.00 | 0.43 | 0.43 | 43 | 1018.1 |
| 20260503180027 | 15 | 304 | 11.3 | 17.7 | 0.00 | 0.43 | 0.43 | 42 | 1018.1 |
| 20260503175031 | 15 | 348 | 12.9 | 27.4 | 0.00 | 0.43 | 0.43 | 42 | 1018.1 |
| 20260503174018 | 15 | 339 | 14.5 | 20.9 | 0.00 | 0.43 | 0.43 | 42 | 1018.1 |
| 20260503173023 | 15 | 320 | 11.3 | 19.3 | 0.00 | 0.43 | 0.43 | 44 | 1018.1 |
| 20260503172028 | 15 | 286 | 16.1 | 24.1 | 0.00 | 0.43 | 0.43 | 43 | 1018.3 |
| 20260503171047 | 14 | 295 | 12.9 | 24.1 | 0.00 | 0.43 | 0.43 | 44 | 1018.6 |
| 20260503131021 | 7 | 311 | 9.7 | 14.5 | 0.00 | 0.43 | 0.43 | 66 | 1019.8 |
| 20260503110109 | 1 | 0.0 | 0.0 | 0.00 | 0.43 | 0.43 | 87 | 1019.0 | |
| 20260503081020 | 0 | 0.0 | 0.0 | 0.43 | 0.43 | 0.43 | 90 | 1017.4 | |
| 20260503072026 | 0 | 227 | 1.6 | 3.2 | 0.00 | 0.00 | 0.00 | 90 | 1017.1 |
| 20260503071031 | 0 | 316 | 1.6 | 4.8 | 0.00 | 0.00 | 0.00 | 93 | 1016.9 |
| 20260503055032 | 3 | 291 | 3.2 | 4.8 | 0.00 | 0.00 | 0.00 | 79 | 1017.2 |
| 20260503054040 | 3 | 286 | 1.6 | 4.8 | 0.00 | 0.00 | 0.00 | 81 | 1017.2 |
| 20260503053023 | 3 | 290 | 1.6 | 6.4 | 0.00 | 0.00 | 0.00 | 81 | 1017.2 |
| 20260503052030 | 3 | 274 | 4.8 | 8.0 | 0.00 | 0.00 | 0.00 | 81 | 1017.1 |
| 20260503051015 | 4 | 231 | 1.6 | 4.8 | 0.00 | 0.00 | 0.00 | 80 | 1017.2 |
| 20260503050020 | 4 | 0 | 4.8 | 9.7 | 0.00 | 0.00 | 0.00 | 81 | 1017.4 |
| 20260503045025 | 4 | 321 | 4.8 | 6.4 | 0.00 | 0.00 | 0.00 | 81 | 1017.5 |
| 20260503044029 | 4 | 276 | 3.2 | 6.4 | 0.00 | 0.00 | 0.00 | 81 | 1017.6 |
| 20260503043017 | 5 | 267 | 3.2 | 6.4 | 0.00 | 0.03 | 0.00 | 80 | 1017.6 |
| 20260503042041 | 5 | 294 | 3.2 | 4.8 | 0.00 | 0.03 | 0.00 | 79 | 1017.6 |
| 20260503041026 | 5 | 271 | 3.2 | 6.4 | 0.00 | 0.03 | 0.00 | 78 | 1017.6 |
| 20260503040030 | 5 | 298 | 6.4 | 8.0 | 0.00 | 0.03 | 0.00 | 78 | 1017.6 |
| 20260503035017 | 5 | 289 | 6.4 | 8.0 | 0.00 | 0.03 | 0.03 | 78 | 1017.6 |
| 20260503034023 | 6 | 275 | 4.8 | 6.4 | 0.00 | 0.03 | 0.03 | 77 | 1017.5 |
| 20260503033027 | 6 | 288 | 6.4 | 12.9 | 0.00 | 0.03 | 0.03 | 75 | 1017.4 |
| 20260503032052 | 6 | 297 | 4.8 | 9.7 | 0.00 | 0.03 | 0.03 | 75 | 1017.2 |
| 20260503031020 | 6 | 19 | 4.8 | 9.7 | 0.00 | 0.71 | 0.03 | 75 | 1017.6 |
| 20260503030023 | 7 | 313 | 3.2 | 6.4 | 0.00 | 0.71 | 0.03 | 74 | 1017.8 |
| 20260503025028 | 7 | 300 | 4.8 | 9.7 | 0.00 | 0.71 | 0.03 | 73 | 1017.9 |
| 20260503024015 | 7 | 295 | 8.0 | 11.3 | 0.00 | 0.71 | 0.03 | 73 | 1017.9 |
| 20260503023020 | 7 | 321 | 4.8 | 6.4 | 0.00 | 0.71 | 0.03 | 73 | 1017.9 |
| 20260503022024 | 7 | 308 | 6.4 | 9.7 | 0.00 | 0.71 | 0.03 | 72 | 1018.1 |
| 20260503021029 | 7 | 299 | 6.4 | 14.5 | 0.00 | 0.71 | 0.03 | 73 | 1018.1 |
| 20260503020036 | 7 | 315 | 6.4 | 11.3 | 0.00 | 0.71 | 0.03 | 73 | 1017.9 |
| 20260503015041 | 7 | 328 | 6.4 | 12.9 | 0.00 | 0.71 | 0.03 | 74 | 1017.9 |
| 20260503014026 | 7 | 307 | 8.0 | 12.9 | 0.00 | 0.71 | 0.03 | 72 | 1017.8 |
| 20260503013112 | 7 | 301 | 6.4 | 9.7 | 0.00 | 0.71 | 0.03 | 73 | 1017.6 |
| 20260503012039 | 7 | 289 | 4.8 | 9.7 | 0.00 | 0.71 | 0.03 | 73 | 1017.6 |
| 20260503011022 | 7 | 330 | 6.4 | 9.7 | 0.00 | 0.71 | 0.03 | 73 | 1017.4 |
| 20260503010027 | 7 | 322 | 3.2 | 8.0 | 0.00 | 0.71 | 0.03 | 73 | 1017.3 |
| 20260503005025 | 7 | 290 | 4.8 | 9.7 | 0.00 | 0.71 | 0.03 | 71 | 1017.2 |
| 20260503004019 | 7 | 326 | 4.8 | 9.7 | 0.00 | 0.71 | 0.03 | 73 | 1017.1 |
| 20260503003024 | 7 | 319 | 3.2 | 6.4 | 0.00 | 0.71 | 0.03 | 72 | 1017.1 |
| 20260503002042 | 8 | 334 | 4.8 | 8.0 | 0.00 | 0.71 | 0.03 | 71 | 1017.0 |
| 20260503001021 | 8 | 349 | 4.8 | 9.7 | 0.00 | 0.71 | 0.03 | 70 | 1016.8 |
| 20260503000041 | 8 | 326 | 8.0 | 9.7 | 0.00 | 0.71 | 0.03 | 69 | 1016.6 |
| 20260502235018 | 9 | 329 | 4.8 | 6.4 | 0.00 | 0.71 | 0.03 | 68 | 1016.7 |
| 20260502234017 | 9 | 331 | 6.4 | 14.5 | 0.00 | 0.71 | 0.03 | 67 | 1016.7 |
| 20260502233016 | 9 | 340 | 11.3 | 14.5 | 0.00 | 0.71 | 0.03 | 67 | 1016.6 |